Weather History for Fort Benning, GA

Change the Weather History Date:

Monday, February 25, 2013

  Actual Average Record
Temperature  
Mean Temperature 52 °F -  
Max Temperature 57 °F 63 °F 75 °F (1998)
Min Temperature 47 °F 38 °F 26 °F (1999)
Degree Days  
Heating Degree Days 13    
Growing Degree Days 2 (Base 50)    
Moisture  
Dew Point 48 °F    
Average Humidity 91    
Maximum Humidity 100    
Minimum Humidity 49    
Precipitation  
Precipitation 1.32 in - - ()
Sea Level Pressure  
Sea Level Pressure 29.86 in    
Wind  
Wind Speed 7 mph (ENE)    
Max Wind Speed 14 mph    
Max Gust Speed 24 mph    
Visibility 9 miles    
Events Rain    
Averages and records for this station are not official NWS values.
T = Trace of Precipitation, MM = Missing Value Source: NWS Daily Summary

Daily Weather History Graph

Daily Weather History Graph

Search for Another Location

Airport:

Trip Planner

Search our weather history database for the weather conditions in past years. The results will help you decide how hot, cold, wet, or windy it might be!

Date:

Astronomy

Feb. 25, 2013 Rise Set
Actual Time 7:11 AM EST 6:34 PM EST
Civil Twilight 6:47 AM EST 6:59 PM EST
Nautical Twilight 6:18 AM EST 7:27 PM EST
Astronomical Twilight 5:50 AM EST 7:56 PM EST
Moon 6:43 PM EST (2/25) 6:43 AM EST (2/25)
Length of Visible Light 12h 12m
Length of Day
11h 22m
Full, 100% of the Moon is Illuminated
Feb 25
Full
Feb 25
Full
Mar 4
Last Quarter
Mar 11
New
Mar 19
First Quarter

Hourly Weather History & Observations

Time (EST) Temp. Dew Point Humidity Pressure Visibility Wind Dir Wind Speed Gust Speed Precip Events Conditions
12:58 AM 49.1 °F 44.4 °F 84% 29.94 in 10.0 mi North 2.3 mph - N/A   Mostly Cloudy
1:58 AM 48.9 °F 44.4 °F 84% 29.91 in 10.0 mi NNE 6.9 mph - N/A   Mostly Cloudy
2:58 AM 50.7 °F 45.5 °F 82% 29.89 in 10.0 mi NNW 8.1 mph - N/A   Partly Cloudy
2:59 AM 51.8 °F 42.8 °F 71% 29.89 in 10.0 mi NW 9.2 mph - N/A Rain Light Rain
3:13 AM 51.8 °F 41.0 °F 67% 29.90 in 10.0 mi North 5.8 mph - N/A   Partly Cloudy
3:23 AM 51.8 °F 42.8 °F 71% 29.92 in 10.0 mi NNE 9.2 mph - N/A   Mostly Cloudy
3:58 AM 55.0 °F 36.3 °F 49% 29.92 in 10.0 mi East 5.8 mph - 0.00 in   Mostly Cloudy
4:13 AM 55.4 °F 37.4 °F 51% 29.90 in 10.0 mi NE 8.1 mph - N/A   Scattered Clouds
4:38 AM 55.4 °F 37.4 °F 51% 29.87 in 10.0 mi East 12.7 mph - N/A Rain Light Rain
4:58 AM 55.4 °F 38.5 °F 53% 29.89 in 10.0 mi ENE 5.8 mph - 0.00 in Rain Light Rain
5:58 AM 49.6 °F 43.5 °F 79% 29.88 in 10.0 mi ESE 4.6 mph - 0.02 in Rain Light Rain
6:58 AM 47.8 °F 46.0 °F 93% 29.94 in 9.0 mi NE 5.8 mph - 0.09 in Rain Rain
7:08 AM 48.2 °F 46.4 °F 93% 29.92 in 10.0 mi NE 5.8 mph - N/A Rain Light Rain
7:18 AM 48.2 °F 46.4 °F 93% 29.92 in 9.0 mi NE 6.9 mph - N/A Rain Light Rain
7:23 AM 48.2 °F 46.4 °F 93% 29.91 in 9.0 mi North 6.9 mph - N/A Rain Light Rain
7:58 AM 48.4 °F 46.9 °F 95% 29.94 in 7.0 mi ENE 2.3 mph - 0.15 in Rain Rain
8:18 AM 48.2 °F 48.2 °F 100% 29.94 in 8.0 mi East 5.8 mph - N/A Rain Light Rain
8:53 AM 48.2 °F 48.2 °F 100% 29.96 in 6.0 mi NE 2.3 mph - N/A Rain Light Rain
8:58 AM 48.2 °F 48.2 °F 100% 29.97 in 6.0 mi ENE 2.3 mph - 0.13 in Rain Light Rain
9:43 AM 50.0 °F 50.0 °F 100% 29.97 in 4.0 mi NE 1.2 mph - N/A Rain Rain
9:53 AM 50.0 °F 48.2 °F 94% 29.97 in 4.0 mi NE 2.3 mph - N/A Rain Rain
9:58 AM 49.3 °F 49.1 °F 99% 29.98 in 5.0 mi ENE 3.5 mph - 0.20 in Rain Rain
10:18 AM 50.0 °F 50.0 °F 100% 29.97 in 8.0 mi ENE 3.5 mph - N/A Rain Light Rain
10:23 AM 50.0 °F 50.0 °F 100% 29.97 in 8.0 mi NE 2.3 mph - N/A Rain Light Rain
10:26 AM 50.0 °F 50.0 °F 100% 29.97 in 8.0 mi ENE 3.5 mph - N/A Rain Light Rain
10:58 AM 50.5 °F 50.2 °F 99% 29.97 in 8.0 mi East 4.6 mph - 0.14 in Rain Light Rain
11:58 AM 51.1 °F 50.9 °F 99% 29.92 in 6.0 mi ESE 11.5 mph 18.4 mph 0.09 in Rain Light Rain
12:03 PM 51.8 °F 50.0 °F 94% 29.90 in 10.0 mi East 10.4 mph 19.6 mph N/A Rain Light Rain
12:25 PM 51.8 °F 51.8 °F 100% 29.85 in 10.0 mi East 13.8 mph 24.2 mph N/A   Overcast
12:58 PM 52.5 °F 51.8 °F 97% 29.85 in 10.0 mi East 12.7 mph 23.0 mph 0.01 in   Overcast
1:13 PM 53.6 °F 53.6 °F 100% 29.83 in 10.0 mi ESE 11.5 mph - N/A   Overcast
1:58 PM 55.9 °F 53.4 °F 91% 29.83 in 10.0 mi ESE 8.1 mph - N/A   Overcast
2:23 PM 57.2 °F 53.6 °F 88% 29.82 in 10.0 mi East 6.9 mph - N/A   Overcast
2:58 PM 57.6 °F 54.3 °F 89% 29.84 in 10.0 mi East 10.4 mph - N/A   Overcast
3:58 PM 57.0 °F 54.0 °F 89% 29.83 in 10.0 mi East 6.9 mph - N/A   Overcast
4:08 PM 57.2 °F 53.6 °F 88% 29.82 in 10.0 mi East 8.1 mph - N/A   Overcast
4:58 PM 56.3 °F 53.4 °F 90% 29.84 in 10.0 mi ENE 9.2 mph - N/A   Overcast
5:58 PM 55.8 °F 53.2 °F 91% 29.83 in 10.0 mi East 11.5 mph - N/A   Overcast
6:23 PM 55.4 °F 53.6 °F 94% 29.81 in 10.0 mi ENE 11.5 mph - N/A   Overcast
6:39 PM 55.4 °F 53.6 °F 94% 29.81 in 10.0 mi NE 10.4 mph - N/A   Overcast
6:54 PM 51.8 °F 51.8 °F 100% 29.81 in 10.0 mi ENE 11.5 mph - N/A   Overcast
6:58 PM 52.5 °F 50.9 °F 94% 29.82 in 10.0 mi ENE 8.1 mph 17.3 mph N/A   Overcast
7:13 PM 51.8 °F 50.0 °F 94% 29.81 in 8.0 mi ENE 9.2 mph - N/A   Overcast
7:53 PM 50.0 °F 50.0 °F 100% 29.82 in 10.0 mi NE 8.1 mph 17.3 mph N/A   Overcast
7:56 PM 50.0 °F 50.0 °F 100% 29.82 in 10.0 mi NE 8.1 mph 17.3 mph N/A Rain Light Rain
7:58 PM 50.0 °F 50.0 °F 100% 29.83 in 10.0 mi NE 8.1 mph 17.3 mph N/A Rain Light Rain
8:13 PM 50.0 °F 50.0 °F 100% 29.81 in 8.0 mi NE 11.5 mph - N/A Rain Light Rain
8:18 PM 50.0 °F 50.0 °F 100% 29.81 in 8.0 mi ENE 8.1 mph - N/A Rain Light Rain
8:28 PM 50.0 °F 50.0 °F 100% 29.80 in 10.0 mi ENE 9.2 mph - N/A Rain Light Rain
8:33 PM 50.0 °F 50.0 °F 100% 29.80 in 9.0 mi ENE 11.5 mph - N/A Rain Rain
8:53 PM 50.0 °F 48.2 °F 94% 29.78 in 7.0 mi East 9.2 mph - N/A Rain Light Rain
8:58 PM 49.8 °F 49.1 °F 97% 29.79 in 8.0 mi ENE 10.4 mph - 0.08 in Rain Light Rain
9:03 PM 50.0 °F 50.0 °F 100% 29.78 in 10.0 mi ENE 10.4 mph - N/A Rain Light Rain
9:58 PM 50.0 °F 49.3 °F 97% 29.79 in 10.0 mi East 11.5 mph - 0.03 in Rain Light Rain
10:28 PM 50.0 °F 48.2 °F 94% 29.79 in 9.0 mi East 5.8 mph - N/A Rain Light Rain
10:58 PM 49.3 °F 48.7 °F 98% 29.78 in 5.0 mi ENE 10.4 mph - 0.18 in Rain Rain
11:28 PM 50.0 °F 48.2 °F 94% 29.75 in 5.0 mi ENE 11.5 mph - N/A Rain Light Rain
11:33 PM 50.0 °F 48.2 °F 94% 29.75 in 7.0 mi ENE 10.4 mph - N/A Rain Light Rain
11:38 PM 50.0 °F 48.2 °F 94% 29.75 in 10.0 mi ENE 8.1 mph - N/A Rain Light Rain
11:48 PM 50.0 °F 48.2 °F 94% 29.75 in 9.0 mi ENE 10.4 mph 18.4 mph N/A Rain Light Rain
11:58 PM 49.1 °F 48.2 °F 97% 29.74 in 7.0 mi ENE 12.7 mph - 0.20 in Rain Light Rain